User: anonymous   Login
Location: York
(31.8935°S, 116.7682°E)
Time: 22:49:24
(UTC+08:00)
Language:

Max Valier Satellite - Orbit

View from above orbital plane
View from above orbital plane
View from above satellite
View from above satellite

Ground track
Ground track

The orbit data is extracted from the following two-line orbital elements,

1 42778U 17036P   21214.60279511  .00001445  00000-0  62816-4 0  9997
2 42778  97.2518 261.6959 0012270  22.3089 337.8680 15.23774226228316
Epoch (UTC): 02 August 2021 14:28:01
Eccentricity: 0.0012270
inclination: 97.2518°
perigee height: 486 km
apogee height: 503 km
right ascension of ascending node: 261.6959°
argument of perigee: 22.3089°
revolutions per day: 15.23774226
mean anomaly at epoch: 337.8680°
orbit number at epoch: 22831

The dashed part of the orbit path shows where the satellite is in the earth's shadow,  

DLR